941  
NZUS52 KFFC 220010  
RWROBS  
WEATHER ROUNDUP FOR GEORGIA  
NATIONAL WEATHER SERVICE PEACHTREE CITY GA  
800 PM EDT SAT APR 21 2018  
 
NOTE: "FAIR" INDICATES FEW OR NO CLOUDS BELOW 12,000 FEET WITH NO  
SIGNIFICANT WEATHER AND/OR S TO VISIBILITY
.  
 
* = USE WITH CAUTION. THE STATIONS MARKED WITH AN ASTERISK MAY NOT  
REPORT WEATHER SUCH AS PRECIPITATION, FOG, OR THUNDER AND ARE NOT  
QUALITY CONTROLLED BY NWS.  
 
THE REMARK "TC" DENOTES TEMPERATURE READING IN DEGREES CELSIUS.  
 
GAZ001>058-220100-  
NORTH GEORGIA  
 
CITY SKY/WX TMP DP RH WIND PRES REMARKS
 
ATLANTA MOCLDY 68 42 38 SE10 30.24S  
6HR MIN TEMP: 68; 6HR MAX TEMP: 72;  
 
ATHENS FAIR 62 43 49 CALM 30.27R  
6HR MIN TEMP: 62; 6HR MAX TEMP: 73;  
 
CHAMBLEE CLOUDY 67 40 37 E5 30.24S  
6HR MIN TEMP: 67; 6HR MAX TEMP: 71;  
 
PEACHTREE CITY FAIR 68 42 38 SE9 30.23F  
6HR MIN TEMP: 67; 6HR MAX TEMP: 74;  
 
ROME MOCLDY 68 44 42 SE6 30.20R  
6HR MIN TEMP: 68; 6HR MAX TEMP: 75;  
 
WEST ATLANTA CLOUDY 69 42 37 SE8 30.23S  
6HR MIN TEMP: 69; 6HR MAX TEMP: 74;  
 
GAINESVILLE MOCLDY 64 38 38 E6 30.27F  
6HR MIN TEMP: 64; 6HR MAX TEMP: 69;  
 
CARTERSVILLE CLOUDY 68 42 38 SE6 30.22S  
6HR MIN TEMP: 68; 6HR MAX TEMP: 73;  
 
BLAIRSVILLE FAIR 62 30 29 SE10 30.27R  
6HR MIN TEMP: 62; 6HR MAX TEMP: 68;  
 
DECATUR FAIR 70 47 43 SE9 30.16R  
6HR MIN TEMP: 70; 6HR MAX TEMP: 75;  
 
CLEMSON FAIR 64 36 35 CALM 30.28F  
6HR MIN TEMP: 64; 6HR MAX TEMP: 69;  
 
GREENVILLE FAIR 63 37 38 CALM 30.29S  
6HR MIN TEMP: 63; 6HR MAX TEMP: 69;  
 
FLORENCE NOT AVBL  
CHARLESTON FAIR 62 51 67 E9 30.31S  
6HR MIN TEMP: 62; 6HR MAX TEMP: 72;  
 
MYRTLE BEACH FAIR 59 46 62 E9 30.35S  
6HR MIN TEMP: 59; 6HR MAX TEMP: 65;  
 
FAYETTEVILLE FAIR 63 37 38 E5 30.32R  
6HR MIN TEMP: 63; 6HR MAX TEMP: 71;  
 
WILMINGTON FAIR 59 41 51 E7 30.36R  
6HR MIN TEMP: 59; 6HR MAX TEMP: 67;  
 
RALEIGH MOCLDY 63 36 36 SE5 30.33S  
6HR MIN TEMP: 63; 6HR MAX TEMP: 68;  
 
DALTON FAIR 70 41 35 SE7 30.22S  
LAWRENCEVILLE MOCLDY 65 41 41 E6 30.25S  
6HR MIN TEMP: 65; 6HR MAX TEMP: 71;  
 
MARIETTA MOCLDY 67 40 37 E12 30.23S  
6HR MIN TEMP: 67; 6HR MAX TEMP: 72;  
 
KENNESAW CLOUDY 68 42 38 SE8 30.24S  
6HR MIN TEMP: 68; 6HR MAX TEMP: 72;  
 
WINDER MOCLDY 66 39 37 SE3 30.28S  
CANTON FAIR 68 30 24 E7 30.25S  
TOCCOA FAIR 67 39 35 CALM 30.28S  
6HR MIN TEMP: 67; 6HR MAX TEMP: 73;  
 
CORNELIA FAIR 62 46 54 CALM 30.28S  
6HR MIN TEMP: 62; 6HR MAX TEMP: 68;  
 
JASPER N/A N/A N/A N/A SE7 30.28S  
CHARLOTTE FAIR 66 32 28 SE9 30.30S  
6HR MIN TEMP: 65; 6HR MAX TEMP: 70;  
 

 
 
GAZ059>098-102>109-220100-  
OTHER STATIONS  
 
CITY SKY/WX TMP DP RH WIND PRES REMARKS
 
AUGUSTA-BUSH MOCLDY 68 52 56 SE7 30.26S  
6HR MIN TEMP: 68; 6HR MAX TEMP: 76;  
 
AUGUSTA-DANIEL MOCLDY 70 50 49 SE7 30.27S  
6HR MIN TEMP: 70; 6HR MAX TEMP: 76;  
 
COLUMBUS FAIR 68 50 52 SE13 30.20S  
6HR MIN TEMP: 68; 6HR MAX TEMP: 78;  
 
MACON CLOUDY 68 46 45 SE6 30.24S  
6HR MIN TEMP: 68; 6HR MAX TEMP: 76;  
 
ROBINS AFB CLOUDY 68 46 45 SE6 30.24S  
6HR MIN TEMP: 68; 6HR MAX TEMP: 76;  
 
GREENSBORO FAIR 64 43 45 CALM 30.23S  
THOMSON CLOUDY 68 41 37 S3 30.31S  
6HR MIN TEMP: 67; 6HR MAX TEMP: 73;  
 
SANDERSVILLE NOT AVBL  
THOMASTON CLOUDY 68 32 26 SE5 30.25S  
BUTLER N/A 66 43 42 E6 30.23F  
6HR MIN TEMP: 66; 6HR MAX TEMP: 76;  
 
LAGRANGE MOCLDY 70 43 36 SE13G22 30.21R  
6HR MIN TEMP: 70; 6HR MAX TEMP: 76;  
 
MILLEDGEVILLE CLOUDY 68 43 40 CALM 30.25S  
CARROLLTON MOCLDY 65 43 44 SE7 30.25S  
6HR MIN TEMP: 65; 6HR MAX TEMP: 73;  
 
AMERICUS CLOUDY 64 52 63 SE12 30.24F  
CORDELE CLOUDY 68 60 76 E7 30.24F  
6HR MIN TEMP: 68; 6HR MAX TEMP: 76;  
 
SAVANNAH MOCLDY 65 53 65 NE9 30.29R  
6HR MIN TEMP: 65; 6HR MAX TEMP: 72;  
 
NEW BERN FAIR 57 40 52 S5 30.37R  
6HR MIN TEMP: 57; 6HR MAX TEMP: 66;  
 
HUNTSVILLE MOCLDY 72 48 42 S9 30.16R  
6HR MIN TEMP: 71; 6HR MAX TEMP: 76;  
 

 
 
GAZ099>101-110>166-220100-  
OTHER STATIONS  
 
CITY SKY/WX TMP DP RH WIND PRES REMARKS
 
VALDOSTA CLOUDY 68 60 75 E9 30.20S  
6HR MIN TEMP: 68; 6HR MAX TEMP: 72;  
 
ALMA CLOUDY 63 59 87 VRB5 30.25R  
6HR MIN TEMP: 63; 6HR MAX TEMP: 66; 6HR PCP: TRACE;  
 
ST SIMONS CLOUDY 67 62 84 NE12 30.24S  
6HR MIN TEMP: 67; 6HR MAX TEMP: 69; 6HR PCP: TRACE;  
 
FT STEWART CLOUDY 65 55 69 NE8 30.25S  
6HR MIN TEMP: 65; 6HR MAX TEMP: 71;  
 
ALBANY CLOUDY 68 59 73 E16 30.22S  
6HR MIN TEMP: 68; 6HR MAX TEMP: 77;  
 
HUNTER AFB MOCLDY 65 54 67 NE9 30.26R  
6HR MIN TEMP: 65; 6HR MAX TEMP: 72;  
 
MOODY AFB CLOUDY 67 60 79 E8 30.20S  
6HR MIN TEMP: 67; 6HR MAX TEMP: 71;  
 
BRUNSWICK CLOUDY 64 59 82 NE9 30.25S  
BAINBRIDGE N/A 72 63 73 E15G24 30.16S  
MOULTRIE FAIR 68 61 77 E8 30.19F  
VIDALIA CLOUDY 68 55 64 SE6 30.27S  
WAYCROSS MOCLDY 64 61 90 E7 30.24S  
6HR MIN TEMP: 63; 6HR MAX TEMP: 69;  
 
DOUGLAS CLOUDY 63 59 88 E10G16 30.25F  
TIFTON CLOUDY 65 61 88 E8 30.22S  
HAZELHURST MOCLDY 65 57 73 E7 30.25S  
6HR MIN TEMP: 65; 6HR MAX TEMP: 72;  
 
COLUMBIA FAIR 69 43 38 E6 30.28R  
6HR MIN TEMP: 69; 6HR MAX TEMP: 74;  
 
RALEIGH MOCLDY 63 36 36 SE5 30.33S  
6HR MIN TEMP: 63; 6HR MAX TEMP: 68;  
 
GREENSBORO FAIR 62 32 32 SE6 30.30S  
6HR MIN TEMP: 62; 6HR MAX TEMP: 69;  
 
HICKORY FAIR 62 32 32 CALM 30.29S  
6HR MIN TEMP: 62; 6HR MAX TEMP: 67;  
 
ASHEVILLE FAIR 61 31 32 SE8 30.30R  
6HR MIN TEMP: 61; 6HR MAX TEMP: 67;  
 
KNOXVILLE MOCLDY 69 33 26 NE3 30.20S  
6HR MIN TEMP: 69; 6HR MAX TEMP: 74;  
 
NASHVILLE MOCLDY 71 31 22 SE6 30.17S  
6HR MIN TEMP: 70; 6HR MAX TEMP: 76;  
 
JACKSONMS MOCLDY 71 57 61 SE3 30.04S  
6HR MIN TEMP: 71; 6HR MAX TEMP: 77;  
 
TUPELO NOT AVBL  
GREENWOOD FAIR 73 52 47 E6 30.06F  
6HR MIN TEMP: 73; 6HR MAX TEMP: 80;  
 
MERIDIAN FAIR 73 57 57 E7 30.08F  
6HR MIN TEMP: 73; 6HR MAX TEMP: 78;  
 
NEW ORLEANS CLOUDY 73 67 81 SE16G23 30.04S  
6HR MIN TEMP: 73; 6HR MAX TEMP: 79;  
 

 
 
 
CLICK HERE TO GO TO PREVIOUS BULLETINS.

The Nexlab GA Page Main Text Page